Sacramento, CA

8:02 PM PST on December 04, 2016 (GMT -0800)
Sacramento Executive

Weather History for KSAC - September, 2013

Change the Weather History Date:

Tuesday, September 10, 2013

  Actual Average Record
Temperature  
Mean Temperature 75 °F -  
Max Temperature 87 °F 88 °F 106 °F (2015)
Min Temperature 62 °F 57 °F 49 °F (1983)
Degree Days  
Heating Degree Days 0    
Cooling Degree Days 10    
Growing Degree Days 23 (Base 50)    
Moisture  
Dew Point 55 °F    
Average Humidity 58    
Maximum Humidity 78    
Minimum Humidity 37    
Precipitation  
Precipitation 0.00 in 0.01 in 0.07 in (1976)
Month to date precipitation 0.10 0.06  
Year to date precipitation 4.01 12.01  
Since 1 July precipitation 0.10  
Sea Level Pressure  
Sea Level Pressure 29.74 in    
Wind  
Wind Speed 7 mph (SSW)    
Max Wind Speed 23 mph    
Max Gust Speed 30 mph    
Visibility 10 miles    
Events      
T = Trace of Precipitation, MM = Missing Value Source: NWS Daily Summary

Daily Weather History Graph

Daily Weather History Graph

Search for Another Location

Airport or City:

Trip Planner

Search our weather history database for the weather conditions in past years. The results will help you decide how hot, cold, wet, or windy it might be!

Date:

Astronomy

Sep. 10, 2013 Rise Set
Actual Time 6:43 AM PDT 7:21 PM PDT
Civil Twilight 6:16 AM PDT 7:48 PM PDT
Nautical Twilight 5:45 AM PDT 8:19 PM PDT
Astronomical Twilight 5:12 AM PDT 8:51 PM PDT
Moon 12:10 PM PDT (9/10) 10:33 PM PDT (9/10)
Length of Visible Light 13h 31m
Length of Day
12h 38m
Waxing Crescent, 29% of the Moon is Illuminated
Sep 10
Waxing Crescent
Sep 12
First Quarter
Sep 19
Full
Sep 26
Last Quarter
Oct 4
New

Hourly Weather History & Observations

Time (PDT) Temp. Heat Index Dew Point Humidity Pressure Visibility Wind Dir Wind Speed Gust Speed Precip Events Conditions
12:53 AM 70.0 °F - 53.1 °F 55% 29.67 in 10.0 mi South 3.5 mph - N/A   Clear
1:53 AM 69.1 °F - 52.0 °F 54% 29.67 in 10.0 mi SSW 4.6 mph - N/A   Clear
2:53 AM 66.9 °F - 53.1 °F 61% 29.68 in 10.0 mi South 4.6 mph - N/A   Clear
3:53 AM 64.9 °F - 53.1 °F 65% 29.68 in 10.0 mi South 3.5 mph - N/A   Clear
4:53 AM 64.0 °F - 53.1 °F 67% 29.69 in 10.0 mi South 5.8 mph - N/A   Clear
5:53 AM 63.0 °F - 54.0 °F 72% 29.70 in 10.0 mi Calm Calm - N/A   Clear
6:53 AM 62.1 °F - 55.0 °F 78% 29.72 in 10.0 mi Calm Calm - N/A   Clear
7:53 AM 64.0 °F - 55.0 °F 73% 29.74 in 10.0 mi South 5.8 mph - N/A   Clear
8:53 AM 66.0 °F - 55.0 °F 68% 29.76 in 10.0 mi South 6.9 mph - N/A   Clear
9:53 AM 71.1 °F - 55.9 °F 59% 29.77 in 10.0 mi South 6.9 mph - N/A   Clear
10:53 AM 73.9 °F - 55.0 °F 52% 29.77 in 10.0 mi South 9.2 mph - N/A   Clear
11:53 AM 78.1 °F - 55.9 °F 46% 29.76 in 10.0 mi SSW 9.2 mph - N/A   Clear
12:53 PM 82.0 °F 81.4 °F 55.0 °F 39% 29.75 in 10.0 mi South 8.1 mph - N/A   Clear
1:53 PM 84.0 °F 82.9 °F 55.0 °F 37% 29.74 in 10.0 mi SSW 9.2 mph - N/A   Clear
2:53 PM 84.9 °F 83.6 °F 55.0 °F 36% 29.73 in 10.0 mi SSW 13.8 mph 20.7 mph N/A   Clear
3:53 PM 84.9 °F 83.9 °F 57.0 °F 38% 29.72 in 10.0 mi SW 13.8 mph 19.6 mph N/A   Clear
4:53 PM 81.0 °F 81.0 °F 57.0 °F 44% 29.72 in 10.0 mi SSW 16.1 mph 26.5 mph N/A   Clear
5:53 PM 75.9 °F - 57.0 °F 52% 29.73 in 10.0 mi SSW 9.2 mph 23.0 mph N/A   Clear
6:53 PM 72.0 °F - 57.0 °F 59% 29.75 in 10.0 mi SSW 11.5 mph 19.6 mph N/A   Clear
7:53 PM 68.0 °F - 57.0 °F 68% 29.77 in 10.0 mi South 12.7 mph 20.7 mph N/A   Clear
8:53 PM 66.0 °F - 57.0 °F 73% 29.80 in 10.0 mi SSW 11.5 mph 24.2 mph N/A   Clear
9:53 PM 64.9 °F - 55.9 °F 73% 29.82 in 10.0 mi SSW 12.7 mph 23.0 mph N/A   Clear
10:53 PM 64.0 °F - 55.9 °F 75% 29.82 in 10.0 mi SSW 16.1 mph 25.3 mph N/A   Clear
11:53 PM 64.0 °F - 55.9 °F 75% 29.84 in 10.0 mi South 10.4 mph 18.4 mph N/A   Clear